Regional Weather Roundup
Issued by NWS

Home | Current Version | Previous Version | Text Only | Print | Product List | Glossary Off
Versions: 1 2 3 4 5 6 7 8 9 10 11 12 13 14 15 16 17 18 19 20 21 22 23 24 25 26 27 28 29 30 31 32 33 34 35 36 37 38 39 40 41 42 43 44 45 46 47 48 49 50

000
ASUS43 KIND 011059
RWRIN

WEATHER ROUNDUP FOR INDIANA
NATIONAL WEATHER SERVICE INDIANAPOLIS IN
700 AM EDT TUE SEP 01 2015

NOTE: "FAIR" INDICATES FEW OR NO CLOUDS BELOW 12,000 FEET WITH NO
SIGNIFICANT WEATHER AND/OR OBSTRUCTIONS TO VISIBILITY.

* - STATION DOES NOT REPORT WEATHER SUCH AS PRECIPITATION OR FOG.

+ - STATION NOT QUALITY CONTROLLED BY THE NATIONAL WEATHER SERVICE.
    USE DATA WITH CAUTION...ESPECIALLY DEWPOINT AND RELATIVE
    HUMIDITY OBSERVATIONS.

INZ001>003-010>013-019-020-011200-
NORTHWEST INDIANA

CITY           SKY/WX    TMP DP  RH WIND       PRES   REMARKS
GARY /AIRPORT/ PTCLDY    72  68  88 VRB5      30.06R
MONTICELLO +   PTCLDY    70  69  98 S6        30.08S

$$

LMZ046-743>745-011200-
SOUTHERN LAKE MICHIGAN

STATION/POSITION TIME  TEMP    WIND        PRES    WAVE
                       AIR SEA DIR/SP/G            HT
                 (UTC) (F)     (DEG/KT/KT) (MB)    (FT)
BURNS HARBOR     1000   72     180/  8/ 11 1018.3R
MICHIGAN CITY    1000   75     170/ 11/ 13   N/A
5NW MICH CITY    1000   73 72  200/  6/  8   N/A     1

$$

INZ004-005-014>016-021>024-011200-
NORTH CENTRAL INDIANA

CITY           SKY/WX    TMP DP  RH WIND       PRES   REMARKS
ELKHART        CLEAR     66  66 100 CALM      30.09
GOSHEN         CLEAR     68  66  93 S3        30.10R FOG
SOUTH BEND     CLEAR     68  67  96 SW5       30.09R

$$

INZ006>009-017-018-025>027-011200-
NORTHEAST INDIANA

CITY           SKY/WX    TMP DP  RH WIND       PRES   REMARKS
ANGOLA *+      CLOUDY    66  55  68 CALM      30.10S VSB 0
FORT WAYNE     CLEAR     68  66  93 SW6       30.12R FOG

$$

INZ028-029-035-036-043>045-051>053-011200-
WEST CENTRAL INDIANA

CITY           SKY/WX    TMP DP  RH WIND       PRES   REMARKS
CRAWFORDSVL +  MOCLDY    64  64 100 CALM      30.11S FOG
GREENCASTLE +  PTCLDY    64  61  88 CALM      30.13R FOG
LAFAYETTE      PTCLDY    69  66  90 CALM      30.09S
TERRE HAUTE    MOCLDY    66  64  93 CALM      30.12R FOG

$$

INZ030>032-037>040-046>048-054>057-064-065-011200-
CENTRAL INDIANA

CITY           SKY/WX    TMP DP  RH WIND       PRES   REMARKS
COLUMBUS       PTCLDY    64  63  94 CALM      30.13
GREENWOOD *+   CLEAR     66  63  88 CALM      30.14R
INDIANAPOLIS   MOCLDY    71  66  84 S5        30.12R
-EAGLE CREEK   PTCLDY    68  67  96 CALM      30.12R FOG
KOKOMO *+      PTCLDY    66  63  88 S5        30.12R
MT COMFORT *+  PTCLDY    66 N/A N/A CALM      30.13R
SHELBYVILLE    CLEAR     65  63  93 CALM      30.12R FOG

$$

INZ033-034-041-042-049-050-058-059-011200-
EAST CENTRAL INDIANA

CITY           SKY/WX    TMP DP  RH WIND       PRES   REMARKS
MUNCIE         PTCLDY    68  67  96 VRB3      30.13R

$$

INZ060-061-067>069-081>083-085>088-011200-
SOUTHWEST INDIANA

CITY           SKY/WX    TMP DP  RH WIND       PRES   REMARKS
EVANSVILLE     PTCLDY    69  67  93 CALM      30.12R
HUNTINGBURG *+ PTCLDY    66  63  88 CALM      30.13R

$$

INZ062-063-066-070>080-084-089>092-011200-
SOUTH CENTRAL AND SOUTHEAST INDIANA

CITY           SKY/WX    TMP DP  RH WIND       PRES   REMARKS
BLOOMINGTON    CLEAR     65  63  93 CALM      30.13R FOG
MADISON *+       N/A     63  63 100 CALM      30.16R VSB 1/4
SEYMOUR +      FOG       63  63 100 CALM      30.13R VSB 1/2

$$




USA.gov is the U.S. government's official web portal to all federal, state and local government web resources and services.